EW6230 Weather Reports


time (UTC)temp
F
wind
direction
speed
knots
gust
knots
rain 1hr
in
rain 24hr
in
rain mn
in
humidity
%
barometer
mb
20260509011603 56 276 0.0 0.0 0.00 0.00 0.00 63 1018.3
20260509010052 56 83 0.0 0.9 0.00 0.00 0.00 63 1018.3
20260509004606 56 82 0.0 0.0 0.00 0.00 0.00 63 1018.3
20260509003045 56 82 0.0 0.9 0.00 0.00 0.00 63 1018.3
20260509001541 57 68 0.0 0.9 0.00 0.00 0.00 63 1018.3
20260509000037 56 57 0.0 0.9 0.00 0.00 0.00 63 1018.3
20260508234532 56 59 0.0 0.9 0.00 0.00 0.00 63 1018.4
20260508233028 56 93 0.0 0.0 0.00 0.00 0.00 63 1018.4
20260508231523 56 93 0.0 0.0 0.00 0.00 0.00 62 1018.2
20260508230023 56 94 0.0 0.0 0.00 0.00 0.00 63 1018.2
20260508224517 56 356 0.0 0.0 0.00 0.00 0.00 63 1018.1
20260508223030 56 357 0.0 0.0 0.00 0.00 0.00 57 1018.0
20260508221506 56 308 0.0 0.0 0.00 0.00 0.00 62 1018.0
20260508220002 57 308 0.0 0.0 0.00 0.00 0.00 61 1018.0
20260508214609 57 307 0.0 0.0 0.00 0.00 0.00 63 1018.1
20260508213054 56 300 0.0 0.0 0.00 0.00 0.00 62 1017.9
20260508211550 54 300 0.0 0.9 0.00 0.00 0.00 60 1017.9
20260508210045 54 300 0.0 0.9 0.00 0.00 0.00 60 1017.7
20260508204544 54 300 0.0 0.0 0.00 0.00 0.00 58 1017.6
20260508203036 54 316 0.0 0.0 0.00 0.00 0.00 60 1017.6
20260508201532 54 262 0.0 0.0 0.00 0.00 0.00 55 1017.4
20260508200027 54 329 0.0 0.9 0.00 0.00 0.00 59 1017.4
20260508194522 53 217 0.0 0.9 0.00 0.00 0.00 53 1017.2
20260508193019 52 81 0.0 0.9 0.00 0.00 0.00 45 1017.1
20260508191514 52 117 0.0 0.0 0.00 0.00 0.00 46 1017.0
20260508190008 51 91 0.0 0.9 0.00 0.00 0.00 41 1016.9
20260508184505 51 91 0.0 0.9 0.00 0.00 0.00 43 1016.7
20260508183100 51 96 0.0 0.0 0.00 0.00 0.00 36 1016.7
20260508181602 51 96 0.0 0.0 0.00 0.00 0.00 36 1016.6
20260508180051 50 96 0.0 1.7 0.00 0.00 0.00 34 1016.6
20260508174546 51 97 0.0 0.9 0.00 0.00 0.00 30 1016.3
20260508173041 50 233 0.0 0.0 0.00 0.00 0.00 21 1016.2
20260508171543 50 226 0.0 1.7 0.00 0.00 0.00 21 1016.0
20260508170034 50 141 0.0 0.9 0.00 0.00 0.00 16 1016.0
20260508164529 50 63 0.0 0.9 0.00 0.00 0.00 14 1015.7
20260508163024 51 63 0.0 0.0 0.00 0.00 0.00 6 1015.5
20260508161519 51 16 0.0 0.9 0.00 0.00 0.00 1 1015.2
20260508160032 51 142 0.0 0.9 0.00 0.00 0.00 1 1015.1
20260508154511 50 129 0.0 0.0 0.00 0.00 0.00 1 1015.0
20260508153006 50 130 0.0 0.0 0.00 0.00 0.00 1 1015.0
20260508151502 50 130 0.0 0.0 0.00 0.00 0.00 1 1015.0
20260508150056 49 130 0.0 0.9 0.00 0.00 0.00 1 1014.7
20260508144552 49 141 0.0 0.9 0.00 0.00 0.00 1 1014.7
20260508143059 0 0.0 0.0 0.00 0.00 0.00 1014.5
20260508141552 0 0.0 0.0 0.00 0.00 0.00 1014.4
20260508140042 0 0.0 0.0 0.00 0.00 0.00 1014.3
20260508134535 0 0.0 0.0 0.00 0.00 0.00 1014.2
20260508133030 0 0.0 0.0 0.00 0.00 0.00 1014.0
20260508131527 0 0.0 0.0 0.00 0.00 0.00 1013.7
20260508130025 47 165 0.0 0.0 0.00 0.00 0.00 1 1013.6
20260508124521 46 164 0.0 0.0 0.00 0.00 0.00 1 1013.7
20260508123017 46 191 0.0 0.0 0.00 0.00 0.00 1 1013.7
20260508121535 46 190 0.0 0.0 0.00 0.00 0.00 1 1013.6
20260508120008 46 191 0.0 0.0 0.00 0.00 0.00 1 1013.6
20260508114504 46 190 0.0 0.0 0.00 0.00 0.00 1 1013.5
20260508113107 46 191 0.0 0.0 0.00 0.00 0.00 1 1013.5
20260508111554 46 191 0.0 0.0 0.00 0.00 0.00 1 1013.5
20260508110054 46 191 0.0 0.0 0.00 0.00 0.00 1 1013.3
20260508104545 46 191 0.0 0.0 0.00 0.00 0.00 1 1013.1
20260508103040 46 191 0.0 0.0 0.00 0.00 0.00 1 1013.0
20260508101538 46 191 0.0 0.0 0.00 0.00 0.00 1 1013.1
20260508100033 47 191 0.0 0.0 0.00 0.00 0.00 1 1013.0
20260508094529 47 191 0.0 0.0 0.00 0.00 0.00 1 1013.0
20260508093024 47 191 0.0 0.0 0.00 0.00 0.00 1 1012.9
20260508091520 47 191 0.0 0.0 0.00 0.00 0.00 1 1012.7
20260508090017 47 169 0.0 0.0 0.00 0.00 0.00 1 1012.6
20260508084511 47 169 0.0 0.0 0.00 0.00 0.00 1 1012.8
20260508083020 48 169 0.0 0.0 0.00 0.00 0.00 1 1012.7
20260508081606 48 169 0.0 0.0 0.00 0.00 0.00 1 1012.6
20260508080101 48 169 0.0 0.0 0.00 0.00 0.00 1 1012.6
20260508074554 48 169 0.0 0.0 0.00 0.00 0.00 1 1012.6
20260508073056 48 169 0.0 0.0 0.00 0.00 0.00 1 1012.8
20260508071549 48 169 0.0 0.0 0.00 0.00 0.00 1 1012.7
20260508070044 48 169 0.0 0.0 0.00 0.00 0.00 1 1012.9
20260508064555 48 169 0.0 0.0 0.00 0.00 0.00 1 1013.1
20260508063036 48 169 0.0 0.0 0.00 0.00 0.00 1 1013.2
20260508061531 48 168 0.0 0.0 0.00 0.00 0.00 1 1013.1
20260508060024 48 169 0.0 0.0 0.00 0.00 0.00 1 1013.2
20260508054520 48 169 0.0 0.0 0.00 0.00 0.00 1 1013.4
20260508053014 48 169 0.0 0.0 0.00 0.00 0.00 1 1013.4
20260508051509 48 169 0.0 0.0 0.00 0.00 0.00 1 1013.3
20260508050005 48 169 0.0 0.0 0.00 0.00 0.00 1 1013.4
20260508044504 49 169 0.0 0.0 0.00 0.00 0.00 1 1013.4
20260508043101 49 169 0.0 0.0 0.00 0.00 0.00 1 1013.4
20260508041603 50 169 0.0 0.0 0.00 0.00 0.00 1 1013.4
20260508040053 51 158 0.0 0.0 0.00 0.00 0.00 1 1013.4
20260508034551 51 158 0.0 0.0 0.00 0.00 0.00 8 1013.4
20260508033042 51 158 0.0 0.0 0.00 0.00 0.00 11 1013.6
20260508031537 52 157 0.0 0.0 0.00 0.00 0.00 20 1013.6
20260508030035 53 157 0.0 0.0 0.00 0.00 0.00 26 1013.6
20260508024530 53 157 0.0 0.0 0.00 0.00 0.00 29 1013.7
20260508023033 53 157 0.0 0.0 0.00 0.00 0.00 34 1013.8
20260508021519 53 156 0.0 0.0 0.00 0.00 0.00 36 1013.9
20260508020016 54 156 0.0 0.0 0.00 0.00 0.00 38 1014.2
20260508014511 54 157 0.0 0.0 0.00 0.00 0.00 44 1014.3
20260508013007 55 156 0.0 0.0 0.00 0.00 0.00 49 1014.2